Location: Unspecified
(0.0000°N, 0.0000°E)
Time: 13:41:29
(UTC+00:00)

S-56A Canister/Altair - Pass Details

Date: 20 November 2019
Orbit: 633 x 2500 km, 38.9° (Epoch: 08 December)

Event Time Altitude Azimuth Distance (km) Brightness Sun altitude
Rises 14:31:16 0° 247° (WSW) 6,173 12.9 44.9°
Reaches altitude 10° 14:35:54 10° 255° (WSW) 5,102 12.7 43.9°
Maximum altitude 14:48:37 37° 316° (NW) 2,970 11.1 41.1°
Drops below altitude 10° 14:58:32 10° 20° (NNE) 3,951 10.9 38.8°
Sets 15:01:40 0° 29° (NNE) 4,681 11.2 38.1°
